PEGASUS DEB, 39320

Orbit data source: Space-Track

PEGASUS DEB, 39320 is space debris in LEO originally from a launch on Thu, 19 May 1994 UTC launched from the Air Force Western Test Range (AFWTR). Debris objects in space refer to the collection of defunct objects orbiting the Earth. Examples of debris include non-operational satellites, rocket bodies, and fragments generated from explosions, collisions, or faulty payload assembly.

Loading next visibility...
Identifier
39320, 1994-029AFF
Orbit
LEO
Country
Flag of USUS
Related business
Manufacturer
Unknown
Mission
Spacecraft
Bus & Motor
Unknown
Mass
Unknown
Launch date (UTC)
1994-05-19 (32 years ago)
Launch vehicle
Unknown
Launch site
Air Force Western Test Range (AFWTR)
Object type
Payload
Rocket body
Debris
Shape & HBR
Unknown shape, 0.1 m
Radar Cross Section
Small (<0.1 m²)

Expand to show TLE details & history
Last TLE update: 6 days ago

TLE from 6 days ago
0 PEGASUS DEB
1 39320U 94029AFF 26230.18591700  .00002116  00000-0  49036-3 0  9990
2 39320  81.7557  34.2992 0279374 180.9063 179.1659 14.33419704736145
Epoch: 2026-08-18T04:27Z
TLE epoch observation values (Epoch: 2026-08-18T04:27:43.228Z)
Latitude
0.00003°
Longitude
0.81173°
Altitude
983.282 km
Speed
7.257 km/s
True Right ascension
02h 17m 11s
True Declination
0° 00' 00"
Sunlit
Object was in daylight at epoch
Visualization orbit readout
Latitude
Unknown
Longitude
Unknown
Altitude
Unknown
Speed
Unknown
Apparent Right ascension
Unknown
Apparent Declination
Unknown
Sunlit
N/A
Visualization observer readout
Local Sidereal Time
21:41:46
Azimuth
Unknown
Elevation
Unknown
Doppler factor
Unknown
Orbital elements
Apogee altitude
977.346 km
Perigee altitude
577.53 km
Semi-major axis
7,155.575 km
Eccentricity
0.02794
Inclination
81.7557°
RAAN
34.2992°
Arg. of periapsis
180.9063°
True anomaly
179.21093°
Mean anomaly
179.1659°
Eccentric anomaly
179.18857°
Mean motion
3.58572 °/min
Orbital period
100.4 mins
BSTAR
0.00049036
Loading maneuver chart data...
Computing Atmospheric mass density...

Documentation

Showing up to 5 results
|